Theta_e
347 348 348 348 349 347 346 347 345 345 345 345 345 345 345 345 342 342 345 345 345 343 343 344 345 343 341 343 342 343 344 344 345 345 344 343 343 343 341 342 340 339 340 339 339 337 336 334 333 333 334 333 332 332 332 332 331 331 332 333 331 331 330 328 325 325 330 336 336 335 337 339 338 345 347 347 348 349 351 354 353 351 350 350 351
348 349 350 349 347 347 346 345 346 347 345 346 345 344 344 344 346 347 342 344 346 342 344 344 344 344 341 342 343 343 344 345 343 343 344 342 341 340 341 340 339 338 339 338 338 336 335 333 332 333 334 332 331 330 330 329 328 327 327 328 329 328 330 327 326 325 324 329 331 336 337 339 336 340 338 344 349 351 351 351 354 353 351 350 351
347 350 349 349 348 348 348 346 346 346 345 344 339 338 338 341 341 340 340 341 346 346 344 343 345 344 342 342 343 343 343 343 344 343 344 343 342 342 342 341 340 338 337 337 336 336 334 333 331 331 332 330 330 329 329 328 327 326 325 326 326 326 327 328 327 324 325 326 331 333 336 338 337 337 340 340 344 350 350 350 350 352 351 351 350
344 348 349 347 347 347 347 347 344 340 338 340 337 337 336 337 338 342 342 339 340 345 344 342 342 343 342 342 342 342 344 345 344 342 341 341 340 340 341 341 339 338 337 336 334 334 332 331 330 330 330 328 328 328 328 326 325 325 325 325 324 324 325 326 326 324 325 325 329 331 335 336 337 340 342 343 344 345 348 346 348 349 350 351 350
345 346 347 344 344 346 343 343 342 342 340 335 335 334 333 333 339 337 339 339 340 341 345 347 345 344 341 342 342 341 341 344 340 339 340 341 341 339 339 340 339 338 338 336 333 334 333 330 330 330 329 327 326 326 326 325 324 324 324 324 324 324 324 324 323 324 325 326 328 331 333 335 338 339 340 339 340 342 347 346 346 346 348 350 350
346 346 344 344 346 343 344 343 341 341 340 339 338 338 337 339 335 333 340 335 341 337 340 341 340 342 343 342 341 342 344 342 340 338 338 339 341 341 339 338 338 338 337 334 333 334 332 331 331 332 329 326 325 325 325 324 324 323 323 323 324 324 323 323 323 323 324 326 328 329 332 333 335 337 339 340 338 338 341 345 346 346 346 346 348
346 343 343 343 344 343 342 343 343 340 343 342 342 338 334 333 332 335 335 335 333 334 335 337 341 340 340 341 342 342 343 343 342 340 339 338 338 338 337 336 336 336 336 333 331 331 330 331 333 333 329 328 326 325 324 324 324 323 324 324 324 323 322 322 322 322 322 323 326 330 331 335 335 333 338 340 340 340 339 339 340 345 345 345 344
343 344 344 346 345 343 342 344 343 345 344 347 343 343 341 342 343 343 340 336 334 335 333 335 336 337 338 338 340 341 342 344 342 340 339 337 336 334 337 337 333 334 334 333 332 330 330 330 328 330 330 329 327 326 325 324 324 323 324 324 324 323 321 321 321 321 320 321 323 326 330 331 333 334 337 338 337 338 339 337 334 337 342 344 345
344 344 346 346 346 346 346 344 345 345 344 344 343 343 343 343 343 342 342 340 338 336 336 336 337 338 338 338 340 341 343 340 340 340 339 337 336 335 336 335 333 332 332 331 331 331 331 331 329 329 331 331 325 322 321 320 322 322 322 324 323 322 321 320 320 320 320 321 322 326 328 329 331 331 332 333 333 333 338 339 336 338 342 342 343
344 345 344 345 346 345 346 346 346 346 343 342 343 343 341 342 340 341 341 339 340 340 341 340 335 334 336 338 339 339 337 334 339 334 333 338 337 336 337 337 335 334 332 331 330 330 330 330 331 333 327 323 322 321 319 318 317 321 323 324 323 322 320 319 319 319 319 319 320 322 324 325 328 331 331 333 336 337 337 338 336 339 342 340 340
346 346 346 346 346 345 345 345 345 344 343 342 343 342 342 342 342 342 342 342 342 342 339 338 333 334 334 334 335 338 336 336 330 327 328 331 335 338 338 337 336 334 333 330 329 329 330 331 331 332 332 330 331 326 322 319 320 319 318 318 318 321 320 318 319 320 320 320 321 321 323 324 327 330 331 334 336 336 336 337 337 337 335 332 331
345 347 347 347 346 345 344 345 344 343 343 343 343 343 342 342 342 342 342 341 342 342 338 338 338 337 336 335 336 339 338 333 324 325 327 328 332 337 337 336 334 334 333 331 329 329 329 329 330 331 332 333 332 331 328 325 322 320 319 318 317 317 317 319 320 320 320 319 319 321 322 323 325 327 329 332 334 336 337 337 338 335 334 333 333
346 347 347 346 345 344 345 344 343 343 343 343 343 343 343 342 342 341 340 342 342 341 341 338 337 339 338 339 337 337 338 332 324 324 324 325 326 329 335 335 334 334 334 332 330 330 331 331 330 331 332 328 332 332 331 330 323 321 318 318 318 318 319 319 318 322 321 320 320 321 324 324 324 326 328 331 335 334 335 335 335 336 336 333 334
347 347 347 346 345 344 343 343 342 342 343 343 343 343 342 341 341 340 341 343 341 339 338 337 338 339 340 338 338 337 337 331 324 322 321 322 323 327 333 334 335 334 333 333 332 331 332 332 330 330 330 327 327 329 331 330 329 328 326 325 324 324 319 318 316 315 318 321 321 320 323 326 325 326 330 331 332 333 334 335 335 334 333 333 337
346 346 346 346 345 344 343 342 342 342 343 343 343 342 342 342 342 341 340 340 339 340 338 339 339 337 337 337 338 336 336 326 321 320 318 317 319 324 331 333 334 333 333 332 332 332 333 331 329 328 326 325 326 327 329 329 327 326 324 324 324 324 324 324 323 322 323 323 322 322 323 325 326 328 329 331 332 334 336 336 338 337 337 338 341
344 345 345 345 344 343 342 341 342 342 342 342 342 341 342 343 342 344 343 339 338 337 338 338 336 335 336 335 333 334 332 321 318 318 316 316 318 327 331 334 334 333 332 331 332 334 332 331 327 325 325 325 322 320 322 324 325 325 323 323 323 323 323 319 319 320 321 323 323 323 324 324 321 324 326 328 333 337 338 339 340 339 334 332 332
343 344 344 344 343 343 341 341 341 342 342 341 341 340 342 342 343 345 341 338 335 335 336 334 335 335 334 335 335 335 333 328 319 316 315 315 320 332 334 333 333 332 331 332 333 331 329 330 327 326 324 323 322 320 317 316 324 324 323 323 322 322 322 324 320 318 318 316 315 315 315 316 317 316 316 318 322 324 333 336 333 336 334 330 329
343 344 344 344 344 343 343 342 342 342 341 340 340 341 340 341 341 344 340 336 333 332 334 334 334 335 334 333 329 331 331 327 314 313 315 315 320 329 333 333 332 332 331 332 333 333 331 330 328 326 325 327 322 315 314 316 322 322 322 321 320 320 320 323 324 325 319 318 318 318 318 318 318 317 317 317 317 319 322 328 335 336 332 332 331
343 344 345 346 345 344 343 343 342 341 341 340 339 339 340 340 342 344 339 336 335 337 335 333 332 333 330 329 335 331 330 325 315 319 316 314 322 330 333 333 331 331 331 332 333 333 332 332 328 325 326 326 312 311 311 311 318 320 321 320 320 320 321 323 322 321 322 324 325 326 326 324 327 323 323 317 317 319 322 328 338 336 332 333 333
346 347 347 346 345 344 343 344 344 341 341 342 343 341 341 339 338 337 338 336 334 335 334 332 330 330 329 330 329 332 330 332 332 318 315 313 315 328 333 332 329 329 330 330 329 330 330 331 329 320 316 312 308 306 305 305 312 318 320 320 320 320 322 320 320 322 323 324 324 326 326 330 332 328 325 325 323 324 324 327 336 339 335 334 334
349 349 349 345 344 344 343 344 343 342 342 342 341 340 339 338 339 339 336 335 336 335 334 332 330 331 331 332 331 332 330 331 330 317 316 313 313 318 331 329 330 329 329 329 328 325 325 328 329 321 310 308 306 304 303 303 305 315 321 322 321 319 313 318 323 319 324 324 324 325 326 329 331 331 328 327 326 326 326 328 334 339 338 335 335
351 350 349 346 345 344 342 343 343 343 344 346 344 344 343 343 340 337 337 336 335 333 333 333 331 329 330 329 329 327 329 331 331 324 320 316 311 312 326 327 327 326 324 324 324 325 328 329 329 324 312 308 306 303 302 303 305 316 323 310 308 311 317 323 324 323 323 323 323 322 324 325 328 332 332 330 329 331 331 331 334 338 339 340 338
354 351 349 347 346 346 345 345 344 344 342 343 342 338 340 339 340 339 338 333 335 332 330 325 325 327 328 327 327 329 329 329 327 330 322 316 311 309 310 316 318 324 324 324 326 327 328 328 329 322 309 305 302 303 303 303 307 320 307 307 310 312 318 322 321 321 321 321 321 320 321 323 324 327 331 333 332 334 334 335 336 337 338 340 341
351 351 350 347 346 346 345 345 345 344 344 342 338 335 336 336 334 332 334 332 329 329 327 328 330 328 325 326 327 328 329 328 328 326 327 319 311 305 304 305 307 318 324 324 324 325 326 328 324 309 304 302 303 304 304 304 314 306 307 309 311 315 320 319 318 318 319 319 319 319 319 321 323 324 327 332 336 337 337 337 338 338 337 338 340
350 350 350 348 348 344 343 339 336 339 336 338 336 335 333 333 330 330 331 328 326 328 330 328 328 328 328 324 326 329 331 331 332 330 323 322 316 312 311 312 311 308 315 322 326 328 320 309 306 305 306 305 305 306 310 315 312 310 310 310 314 318 317 316 316 317 317 317 318 319 320 321 323 325 327 329 335 340 340 339 339 339 339 339 339
342 341 344 346 343 343 338 336 338 336 336 337 336 334 332 332 331 333 331 329 329 332 330 328 328 327 328 328 327 329 330 331 330 331 327 323 319 315 313 313 313 314 314 320 316 313 310 309 309 309 313 318 327 331 329 328 315 314 314 314 318 316 316 315 315 315 316 317 318 318 319 322 323 325 326 326 325 327 334 336 337 337 338 337 337
347 347 347 343 340 337 334 333 333 336 337 335 338 336 333 335 331 330 330 331 334 333 330 329 329 326 328 330 327 327 327 327 326 320 319 319 318 318 318 320 318 318 321 326 322 320 321 321 322 315 315 314 316 317 320 324 323 320 319 318 317 316 316 315 315 315 316 316 318 319 320 322 324 324 322 322 321 322 325 332 336 335 335 337 338
346 346 345 343 341 340 337 337 337 334 332 333 332 333 336 334 331 329 329 331 331 329 327 328 326 324 328 324 326 326 325 324 313 309 312 312 314 315 315 316 316 315 316 317 314 316 318 317 322 331 332 327 324 322 325 325 323 320 318 317 316 317 318 316 315 316 316 317 318 319 320 321 321 322 322 320 320 320 321 322 329 335 336 335 333
344 340 338 339 338 341 338 335 336 335 334 332 320 315 315 323 328 321 314 315 318 320 322 322 322 321 321 325 324 323 321 316 310 302 305 300 303 308 311 312 310 311 311 305 307 312 320 325 328 320 318 317 317 317 316 317 318 318 318 316 315 315 314 314 313 314 315 316 316 317 318 319 320 321 321 320 320 320 321 320 320 323 331 335 331
337 335 333 333 333 334 334 332 332 332 330 338 325 314 306 299 307 321 315 306 301 301 306 314 314 319 321 315 315 315 311 309 299 294 293 293 293 294 295 295 295 300 301 301 303 311 320 324 317 315 315 314 313 312 312 313 313 313 314 314 315 313 313 313 312 313 315 315 316 316 317 317 319 319 320 319 320 320 320 318 319 320 318 316 316
335 331 331 328 332 332 334 331 332 335 329 330 332 322 316 309 296 297 302 301 298 294 294 295 299 304 315 313 307 303 303 298 294 294 293 293 293 292 292 293 294 295 296 303 317 325 317 316 314 314 313 313 311 311 311 311 311 311 312 313 315 313 313 312 311 313 315 314 315 316 316 316 317 318 318 319 319 319 320 320 320 318 317 317 316
336 332 331 330 339 338 331 333 331 331 330 331 330 330 323 318 312 297 295 298 297 294 294 294 295 296 298 304 309 313 305 299 294 294 294 293 293 293 292 293 294 294 296 299 320 318 316 315 312 311 311 310 310 310 309 308 309 309 309 309 311 312 311 310 310 313 314 314 313 313 315 315 315 317 318 318 318 319 318 319 319 318 318 318 317
331 330 334 337 332 332 331 333 333 331 330 330 332 329 328 325 318 314 309 296 294 294 294 294 294 295 295 294 295 298 298 296 295 294 295 295 294 293 293 292 292 293 300 313 314 312 312 311 310 309 308 308 307 307 307 307 306 307 307 307 308 308 308 310 310 312 312 313 313 313 314 314 314 315 316 317 317 318 318 318 319 319 319 317 318
333 333 330 331 333 334 329 332 329 330 333 332 328 327 327 326 324 319 315 313 311 304 298 295 293 295 295 295 297 297 296 295 295 296 296 297 296 296 296 304 301 294 303 312 310 309 308 307 306 306 305 305 304 305 305 304 304 305 305 305 306 306 306 308 308 308 310 311 311 311 313 313 313 313 315 316 316 317 318 318 319 318 318 317 316
331 331 331 330 328 330 326 330 329 328 330 330 330 329 328 328 325 322 320 317 316 315 314 312 300 294 305 300 295 294 295 295 295 296 297 298 298 299 299 313 319 313 311 310 308 306 305 304 303 303 302 301 302 302 301 301 301 302 303 303 304 304 304 305 304 306 308 309 309 309 311 312 312 312 313 314 314 314 315 316 318 318 318 319 318
329 329 332 330 330 331 331 332 331 329 328 330 327 328 326 325 324 325 323 323 321 317 316 316 315 308 299 297 297 295 295 294 293 295 297 298 298 301 313 313 309 308 307 306 305 305 304 303 302 301 301 300 300 299 300 299 299 300 301 301 302 303 303 303 303 304 306 307 307 308 308 310 311 311 312 312 313 313 314 314 316 317 319 318 319
330 330 332 332 331 331 330 329 330 331 326 326 326 327 324 323 323 321 321 320 321 321 318 316 315 313 309 313 305 297 293 294 295 294 293 298 300 309 309 308 307 306 305 305 304 304 303 302 302 302 302 301 301 300 299 299 299 299 300 300 301 301 301 303 302 304 304 304 305 307 307 308 309 310 311 310 311 312 313 314 314 315 317 318 318
331 330 331 331 331 330 328 329 326 324 327 325 327 325 323 322 321 320 318 317 317 317 315 313 313 311 309 309 313 314 314 300 296 299 300 302 308 308 307 306 306 304 304 304 304 304 303 303 302 302 302 303 302 302 301 300 300 300 300 300 300 300 301 302 302 302 303 303 304 305 306 307 308 309 309 309 309 310 310 312 312 313 314 316 317
328 321 320 322 324 328 325 326 326 325 325 324 323 322 320 319 318 317 317 316 315 312 312 310 309 308 308 309 310 310 312 312 310 309 311 308 307 306 305 304 303 303 303 303 303 303 302 302 303 303 302 302 302 302 301 300 300 300 301 300 298 299 299 300 300 300 301 301 302 303 304 306 307 308 308 308 308 309 310 310 311 312 312 313 313
328 327 322 319 324 324 325 327 325 324 324 322 321 320 318 317 316 315 314 313 311 311 310 310 308 306 307 307 306 306 309 308 307 307 307 306 305 304 304 302 302 301 301 302 302 302 302 302 303 302 303 302 302 301 301 300 300 299 300 299 297 297 298 299 299 299 299 301 301 302 302 304 306 306 307 307 308 309 309 309 309 310 311 312 312
327 326 324 322 322 324 324 324 323 323 322 321 320 319 317 317 316 315 314 313 311 312 311 310 307 306 306 303 298 297 308 307 307 307 307 305 304 303 302 302 302 301 301 302 302 302 302 302 302 302 302 302 302 301 301 300 299 298 297 298 297 296 296 298 299 299 299 300 301 301 302 303 304 303 303 306 305 307 308 308 308 308 309 311 309
327 324 324 324 323 323 323 322 322 322 321 320 319 317 316 316 315 315 314 314 313 312 310 309 307 306 302 296 297 294 305 308 307 306 306 305 304 302 302 301 301 301 300 300 301 302 303 303 302 302 302 302 301 301 301 300 298 296 296 296 296 295 294 295 297 298 298 299 301 302 302 303 303 303 303 303 306 307 307 307 307 307 307 307 308
326 324 324 323 323 323 321 321 321 320 319 318 317 317 317 317 316 316 314 314 313 311 310 309 307 308 306 301 302 300 306 306 306 305 304 303 303 303 302 301 300 300 301 302 301 302 303 303 303 302 302 302 302 301 299 298 297 295 294 294 294 293 292 293 295 296 297 298 300 302 302 302 302 301 302 303 304 305 306 305 306 306 305 305 306
324 323 323 323 323 322 321 321 319 318 318 318 317 316 316 316 315 314 314 313 313 312 310 309 308 307 307 305 303 305 305 305 304 304 305 304 303 303 303 303 302 302 302 303 303 303 303 302 302 302 303 302 302 302 300 298 296 294 293 292 292 292 290 291 292 294 296 297 298 300 301 302 302 301 301 303 302 302 304 304 305 305 304 304 305
323 322 321 321 321 320 319 320 318 318 317 317 316 315 315 313 314 314 312 312 311 312 311 309 309 307 306 306 306 305 305 304 304 304 304 304 304 305 305 306 305 306 304 303 304 304 303 302 302 302 302 301 301 301 299 298 297 294 292 290 290 289 288 289 291 294 296 296 297 298 300 301 300 300 300 301 301 301 301 302 303 304 303 303 303
321 320 320 321 320 319 317 317 318 317 315 314 314 314 313 313 314 313 312 310 310 310 309 308 308 307 306 305 305 305 304 304 303 303 304 304 304 305 305 306 307 306 305 303 304 303 301 302 301 300 300 301 299 298 298 297 295 294 292 290 289 289 289 289 292 295 295 295 295 296 299 301 301 300 301 301 300 300 300 301 302 303 302 302 303
319 319 318 318 317 317 317 318 316 315 315 314 314 314 314 314 314 311 311 309 309 308 308 309 308 306 305 306 306 305 305 304 304 303 304 304 305 305 305 306 305 304 303 302 304 302 302 301 301 301 300 300 300 299 297 295 294 292 292 290 289 288 288 288 291 294 293 293 295 296 299 301 301 300 299 300 301 300 301 300 301 301 302 301 302
318 317 316 317 316 315 314 314 314 313 312 314 316 313 312 312 312 310 309 309 308 307 306 306 307 306 306 305 305 304 304 304 305 305 305 305 303 304 304 303 304 303 303 302 302 301 301 300 301 301 301 301 300 297 296 294 293 292 290 289 289 288 287 288 291 292 291 292 294 296 298 300 301 301 298 298 300 300 300 299 300 301 301 301 301
315 315 315 314 314 313 313 313 313 312 311 312 312 312 311 310 309 309 310 308 308 306 306 306 306 305 305 305 305 305 305 306 304 304 304 304 304 304 304 302 302 301 302 302 301 302 302 301 301 300 300 301 300 297 295 293 291 291 290 289 288 287 286 287 289 289 289 291 293 295 298 301 301 302 299 298 299 300 300 300 300 301 300 300 301
315 315 315 314 313 313 314 313 312 312 312 311 310 310 310 309 308 308 307 307 306 306 306 306 305 305 304 304 304 304 304 303 303 303 304 304 304 303 302 302 303 303 303 302 301 301 302 302 301 300 300 301 299 296 294 293 292 291 289 288 286 285 286 286 288 288 289 289 291 294 298 301 300 300 300 298 299 299 299 299 300 300 299 299 299
316 314 313 313 313 313 312 312 311 310 310 310 309 309 308 308 308 307 307 306 305 306 305 305 305 304 304 304 305 304 304 304 305 304 304 303 303 303 302 302 301 301 301 301 302 301 301 301 301 300 300 300 298 295 294 293 292 289 286 286 285 286 286 286 287 286 287 288 291 295 299 299 299 298 298 297 298 298 298 298 299 299 298 298 299
Wind_Speed
8 7 6 5 5 5 4 4 4 4 4 4 4 4 3 4 4 5 4 3 3 4 4 4 4 4 5 5 5 5 5 5 4 3 3 4 3 3 3 3 4 4 3 3 3 3 3 4 5 6 6 6 6 7 8 8 8 8 8 7 8 8 10 11 12 15 13 7 9 10 11 9 10 6 8 8 9 9 9 9 10 9 9 9 10
8 7 6 6 6 5 5 5 5 4 5 5 5 4 4 6 5 3 5 5 4 4 4 3 3 4 4 5 5 6 5 5 5 4 3 4 4 4 4 3 4 4 3 4 3 3 3 4 5 6 4 5 7 7 7 8 8 9 9 8 8 9 8 10 12 13 17 11 11 11 12 10 11 10 11 10 10 10 10 9 9 10 10 9 9
9 7 6 6 6 5 5 5 5 5 5 4 6 6 7 8 9 8 5 3 3 3 3 3 3 4 5 5 5 5 5 5 4 4 4 5 5 5 5 4 4 4 4 3 4 3 4 4 5 5 5 5 5 5 6 6 7 8 10 9 9 9 9 10 11 14 15 14 11 13 10 8 10 10 11 11 11 9 10 10 11 10 9 10 10
11 8 7 6 6 5 5 4 5 6 7 5 7 7 6 5 5 5 5 4 4 3 3 5 5 5 5 5 5 4 4 5 5 4 5 5 5 6 6 5 5 5 4 3 4 3 4 4 4 5 4 5 5 5 4 5 6 7 8 8 9 10 9 9 10 13 14 14 12 11 10 10 10 10 9 9 10 9 9 10 10 10 9 9 10
11 11 9 9 7 6 6 6 6 6 5 5 6 7 8 6 2 4 3 4 4 5 4 3 3 4 5 4 4 4 5 2 3 5 6 6 6 6 6 5 5 5 4 3 4 3 3 4 4 3 4 5 5 4 4 6 6 6 7 8 8 9 8 9 10 11 14 15 13 11 11 11 10 10 8 9 9 10 9 11 10 10 10 10 9
12 12 11 9 7 8 6 6 7 7 7 6 6 5 4 4 5 7 2 4 3 4 4 4 4 4 3 4 4 4 3 3 3 3 5 7 6 6 6 7 6 5 5 5 4 3 3 4 3 2 3 4 5 5 5 7 7 6 8 8 9 9 10 10 10 11 13 15 12 13 11 11 11 10 9 9 9 8 8 8 7 8 8 8 9
5 9 9 9 8 8 8 7 6 6 5 4 4 5 6 6 6 6 5 6 7 6 6 6 4 4 5 4 3 3 2 4 4 4 5 6 5 6 7 8 9 8 5 6 6 6 5 4 2 2 3 3 4 5 6 7 6 8 9 9 9 10 11 10 10 12 12 14 13 12 12 11 10 10 8 8 9 8 8 6 6 6 8 9 9
8 6 6 4 6 7 6 6 6 5 4 3 3 3 3 3 2 3 4 6 8 7 7 5 5 5 6 5 4 4 4 5 5 4 4 3 5 6 6 4 7 9 6 6 6 6 5 5 5 3 4 4 4 4 5 6 6 8 9 9 10 10 11 11 11 11 12 12 12 12 11 10 8 10 10 7 8 8 8 7 9 9 9 8 9
5 5 5 5 4 4 4 4 4 4 4 4 4 4 4 3 3 4 4 5 6 7 6 6 5 6 6 6 5 5 2 4 3 2 3 5 5 6 7 7 7 7 6 7 7 6 5 6 6 5 5 7 9 8 8 7 6 7 10 9 11 10 11 11 10 11 11 11 11 10 11 10 8 8 9 9 10 11 7 8 9 10 8 8 9
8 7 7 6 5 5 4 4 4 4 4 5 5 4 4 4 5 4 5 6 5 6 6 5 7 7 5 4 4 3 6 1 4 6 7 5 6 6 6 5 6 6 6 6 7 7 6 6 6 9 9 10 11 11 10 11 11 9 10 8 10 10 11 11 12 11 11 12 12 11 12 11 9 9 10 11 9 8 9 9 10 9 8 9 8
8 7 7 7 7 6 6 6 5 5 5 5 4 5 5 5 5 5 5 6 6 5 6 7 7 5 6 6 6 0 3 2 6 9 10 12 8 8 6 6 6 6 6 6 6 7 6 6 5 7 8 8 9 10 9 10 12 14 16 16 14 11 10 12 10 11 12 12 12 11 11 12 12 10 11 11 10 10 10 9 10 8 8 9 10
9 8 7 7 7 8 7 7 7 7 6 6 6 6 5 5 6 6 5 6 6 6 5 5 4 5 5 6 4 2 3 5 7 8 11 13 11 7 6 5 6 6 5 6 6 6 7 7 6 5 6 8 8 8 9 11 11 13 15 14 15 16 15 12 11 10 12 12 14 13 12 13 12 11 11 11 10 10 10 10 10 10 10 11 10
9 9 8 8 8 8 7 8 8 7 7 7 6 6 6 6 6 6 6 6 5 5 4 4 5 4 5 3 2 3 4 8 10 9 9 11 12 9 6 7 6 7 6 6 6 6 6 6 7 8 7 9 7 7 8 8 9 12 12 13 15 16 17 17 17 14 12 14 14 15 13 12 14 12 11 12 11 12 10 10 10 10 9 9 12
10 10 9 9 9 9 8 8 8 8 7 7 6 6 6 6 6 6 5 4 4 5 5 5 5 5 3 3 4 4 5 8 10 10 10 11 12 9 7 8 7 7 7 7 6 6 6 6 7 8 8 8 11 12 9 7 8 8 11 10 10 12 15 16 16 17 14 12 12 14 16 13 14 14 13 12 13 13 12 11 10 11 11 13 15
10 10 10 10 10 10 10 10 9 8 7 6 6 6 6 6 6 5 5 5 5 4 5 4 3 4 4 4 4 5 5 9 11 10 10 10 10 7 6 7 6 6 6 7 7 6 4 4 6 7 7 8 9 13 10 6 6 8 11 11 11 12 12 13 13 14 14 14 14 15 16 15 15 16 15 12 15 14 13 13 10 11 11 10 10
11 10 11 11 11 11 11 10 9 8 7 6 6 6 7 7 6 5 5 5 5 5 4 4 5 5 6 6 5 5 6 9 11 10 6 4 5 4 5 6 6 5 5 6 6 3 4 4 6 6 7 7 12 16 9 4 6 10 12 11 12 12 12 12 16 14 15 15 14 16 18 21 21 19 17 14 11 12 13 12 12 5 3 6 10
11 11 12 12 12 11 10 9 8 7 7 7 7 7 6 6 6 5 6 5 6 6 5 6 6 6 6 6 5 4 5 5 6 4 4 1 2 4 5 6 5 5 5 6 5 4 4 5 6 7 7 9 14 15 6 5 7 10 10 11 11 12 13 13 16 18 19 23 25 27 28 30 31 31 29 28 23 17 11 10 13 8 8 8 8
10 10 10 10 9 9 8 8 7 7 7 7 6 5 5 4 5 4 6 7 7 7 6 5 6 6 7 7 8 7 6 3 8 8 6 4 2 4 4 5 4 4 5 6 6 6 7 11 10 7 7 9 9 8 7 6 7 7 8 10 12 12 14 14 14 17 23 23 25 26 27 28 31 31 31 28 26 21 15 15 11 8 10 10 10
10 10 9 8 7 8 8 8 7 7 7 7 6 6 5 5 4 4 5 6 6 5 6 6 6 7 9 9 6 5 6 5 10 4 3 4 2 4 4 4 4 5 5 6 6 5 7 8 12 13 10 7 7 6 8 6 5 6 7 9 10 12 13 15 17 18 18 19 19 20 19 20 18 15 17 26 25 22 16 16 10 11 12 10 11
9 8 8 8 7 7 7 7 7 6 7 6 5 4 4 4 4 4 4 5 6 6 6 6 8 7 8 7 6 6 7 5 2 3 3 4 2 2 3 4 5 5 6 7 6 6 6 4 3 2 3 1 3 7 9 5 4 5 6 6 10 14 14 12 16 15 17 19 19 19 19 20 11 8 10 13 15 17 16 15 13 10 10 10 10
8 7 7 7 7 7 7 7 8 8 6 5 4 3 3 4 3 3 5 6 5 6 7 7 8 7 7 6 7 6 7 5 5 6 3 1 1 4 2 3 4 5 6 6 6 6 6 4 4 1 1 2 7 9 9 8 4 5 5 7 10 14 15 12 17 22 17 18 18 18 17 14 11 7 8 10 11 13 14 15 16 13 11 10 9
7 6 7 7 7 8 7 7 7 6 5 3 2 3 3 3 3 4 5 7 8 8 8 7 9 12 12 13 13 14 11 12 6 3 1 1 3 4 1 3 4 5 6 7 7 6 5 5 5 2 2 7 10 10 10 8 9 5 7 12 16 18 15 13 14 14 15 14 15 15 15 14 12 11 5 8 10 12 13 14 14 15 13 11 12
4 5 5 6 6 6 6 7 5 4 4 3 3 1 2 3 3 5 4 7 9 6 10 9 7 6 6 5 6 3 2 5 5 6 2 1 3 4 6 5 6 4 6 8 7 7 6 7 6 6 11 11 10 10 10 10 7 6 13 15 16 17 13 10 13 13 14 14 16 16 15 14 13 12 11 4 7 10 11 12 13 13 11 11 11
1 2 4 5 5 5 4 3 2 1 2 4 5 1 2 3 5 5 5 7 10 7 1 4 2 2 2 2 2 5 5 2 5 3 2 2 3 6 8 9 7 6 6 7 7 7 8 6 7 14 14 13 11 10 9 8 6 11 13 14 15 13 10 11 11 13 14 15 15 17 16 15 14 13 12 10 6 4 8 10 11 13 13 11 11
2 2 2 3 3 1 6 8 7 2 4 1 1 0 1 0 3 4 2 2 7 8 6 4 3 1 2 1 4 4 4 4 3 1 4 4 7 8 11 12 13 7 5 7 7 7 7 13 16 14 13 13 11 8 5 3 8 11 12 14 12 8 10 9 11 12 13 15 15 15 16 17 14 12 12 12 9 5 4 5 9 10 11 11 11
1 2 4 3 3 4 4 4 2 3 1 2 3 3 4 2 3 5 5 7 7 5 4 4 4 2 1 4 2 2 3 2 3 4 3 7 7 10 13 14 13 13 10 9 11 13 13 14 14 13 11 9 5 2 3 4 7 9 10 12 9 8 7 9 10 11 12 14 15 17 17 16 16 13 12 13 13 11 7 5 6 9 10 9 9
3 4 4 2 1 2 3 1 5 8 5 3 5 5 3 2 1 4 7 8 4 3 3 4 2 3 2 1 2 4 2 1 4 6 7 6 6 8 9 9 10 10 9 6 6 7 9 10 8 10 10 9 6 2 3 3 6 6 7 8 8 8 8 7 8 10 12 13 13 14 14 13 12 14 15 14 15 14 12 6 6 6 6 7 7
4 4 5 4 5 6 6 9 6 3 5 2 1 1 1 4 3 5 5 3 3 3 3 4 4 4 2 1 1 1 2 3 5 5 5 6 6 7 7 8 7 6 7 7 8 9 8 9 9 5 3 4 4 4 3 3 3 5 6 7 8 8 10 13 13 10 10 10 10 11 12 13 15 14 13 13 14 15 14 13 9 5 4 3 0
4 5 4 4 4 2 3 0 3 1 2 6 7 6 4 4 3 6 6 4 4 3 4 4 5 5 3 3 2 1 3 3 3 2 3 3 3 5 6 7 7 7 8 9 10 8 6 5 5 5 7 6 6 5 5 5 5 6 7 7 8 9 9 9 10 10 10 11 12 12 13 12 13 13 13 13 14 13 14 12 14 12 4 4 6
4 5 4 5 4 4 2 1 3 4 2 1 5 6 10 10 8 5 5 7 10 11 9 6 4 4 4 6 5 4 4 2 1 3 5 5 5 6 10 12 13 11 13 17 8 4 4 4 6 7 6 6 6 6 7 6 7 7 7 7 7 9 9 9 10 10 10 11 11 11 12 12 12 14 13 13 12 13 13 13 13 12 13 12 12
3 4 4 2 5 4 4 3 4 3 2 2 2 4 4 7 13 13 11 7 8 8 9 9 11 12 7 5 7 10 7 3 4 5 6 6 6 8 10 12 12 14 14 8 4 2 5 7 6 6 6 6 6 6 7 7 7 7 8 7 6 8 9 9 10 10 10 10 11 11 11 12 11 12 12 12 12 13 12 12 12 12 11 11 11
2 3 4 1 4 1 2 2 4 5 6 7 6 6 5 5 5 8 7 7 8 10 10 10 10 11 12 10 5 3 5 5 6 6 6 6 7 8 10 10 13 13 18 9 1 6 5 6 6 6 6 7 7 7 7 8 8 8 8 9 8 8 9 9 10 9 9 10 10 11 11 11 12 11 11 11 11 10 11 12 12 11 10 10 8
4 4 3 1 2 2 3 2 1 2 2 2 1 3 3 4 5 4 4 4 6 7 7 8 7 9 9 8 8 6 2 5 8 7 6 6 6 7 8 9 10 12 12 9 8 8 7 7 7 7 7 7 7 7 7 7 8 7 8 8 9 9 8 8 8 8 8 9 9 9 10 11 12 12 11 11 11 12 11 11 11 11 10 10 11
2 3 2 2 3 2 3 3 3 1 4 3 3 2 2 4 4 5 6 4 3 3 4 6 4 4 3 1 3 2 2 5 8 9 9 11 11 10 4 4 6 7 6 8 8 7 7 7 7 7 7 7 7 7 7 8 7 7 8 7 7 8 8 8 8 9 8 9 10 10 9 10 11 11 12 12 12 11 11 11 11 12 11 11 11
1 1 4 1 2 3 3 2 5 3 2 0 2 2 1 3 5 6 4 5 4 4 4 3 3 6 3 2 4 2 3 5 8 10 11 14 14 16 1 2 2 4 8 7 7 7 7 7 6 7 7 7 7 7 7 7 8 8 8 8 8 8 9 9 9 9 9 8 9 10 10 9 10 10 10 11 12 12 12 12 12 12 11 10 10
2 1 3 2 1 2 3 4 3 3 2 1 0 1 2 2 1 2 1 2 5 6 4 4 4 6 8 8 5 5 5 6 7 9 12 13 14 13 7 6 6 6 6 7 7 7 6 6 6 5 5 6 6 6 6 7 7 7 7 8 8 8 8 9 9 9 9 8 9 10 10 10 10 10 10 11 12 11 11 12 11 11 11 10 8
3 1 2 1 1 1 2 3 2 1 2 1 1 1 1 2 3 4 3 3 2 5 4 5 5 3 2 3 3 6 5 3 7 8 11 9 10 7 7 6 6 5 5 6 6 5 5 5 5 5 5 5 5 5 5 6 6 6 7 7 7 8 8 8 9 9 9 9 9 9 10 10 10 10 9 10 10 11 11 11 11 11 11 13 11
4 3 2 1 2 3 2 1 3 3 1 2 2 1 2 3 3 3 5 5 4 5 5 5 4 3 3 4 7 5 3 4 2 7 8 2 6 5 6 6 5 5 5 5 5 4 4 4 4 5 5 5 5 5 5 5 5 6 6 6 7 7 9 8 9 9 8 9 9 10 9 10 9 9 9 10 10 10 11 10 10 11 11 12 10
5 5 5 2 3 2 2 2 3 2 2 2 3 2 2 3 3 3 3 4 4 5 4 5 4 4 4 4 5 7 6 2 2 3 4 5 5 5 4 5 5 5 5 5 5 5 4 4 4 4 4 5 5 5 5 6 6 6 6 6 7 7 8 8 8 8 8 9 9 9 9 9 9 9 9 8 9 9 9 9 10 10 10 9 9
5 4 4 2 2 3 2 3 2 2 3 3 3 3 3 2 4 4 4 3 3 3 3 3 4 5 5 6 6 7 4 4 3 4 3 5 5 4 4 4 5 4 4 4 4 4 4 4 4 4 4 4 5 5 5 5 5 6 6 6 7 8 8 7 7 8 8 8 7 8 9 9 9 9 9 8 8 8 9 9 9 9 8 7 9
3 4 4 3 4 2 3 2 2 2 3 4 3 2 3 3 3 2 2 4 4 4 3 5 6 5 4 6 9 8 5 2 2 2 3 4 3 3 4 3 3 3 3 3 3 3 3 3 3 3 4 4 4 5 4 4 5 6 6 6 7 7 8 8 8 8 8 8 7 7 8 8 9 9 9 9 8 7 7 7 8 8 9 8 9
3 4 3 4 3 3 3 3 4 4 3 3 4 4 3 4 3 3 3 4 2 2 4 5 5 5 4 4 8 10 6 2 2 2 2 2 2 2 3 3 3 3 3 3 4 4 3 2 3 3 3 4 4 4 4 5 6 5 6 7 7 7 8 8 8 9 9 8 8 7 7 8 8 8 9 9 8 7 7 7 7 7 8 8 8
3 3 2 2 2 2 3 4 4 3 3 3 3 3 2 2 3 5 5 3 4 5 5 6 5 5 4 4 3 5 4 2 2 1 1 1 1 1 2 3 2 2 2 2 2 2 3 2 3 4 4 4 4 4 5 6 5 6 7 7 7 7 7 8 8 9 9 9 9 8 8 7 7 7 8 8 8 7 7 7 7 7 7 8 7
3 3 3 3 2 2 2 3 3 3 4 4 4 3 5 4 4 4 3 2 3 3 8 6 6 5 5 5 4 4 1 2 2 2 2 2 3 2 2 3 3 3 2 2 2 1 2 2 3 3 3 3 3 4 5 6 6 7 7 7 7 8 8 8 8 9 9 9 9 9 8 7 7 7 8 8 8 8 8 8 7 7 7 7 7
3 4 5 4 3 2 2 2 3 2 3 5 5 5 2 2 4 4 2 2 3 3 1 6 7 5 3 1 1 1 1 1 1 2 2 2 1 1 1 3 5 3 3 3 2 1 2 3 3 3 4 4 4 4 5 5 6 7 7 7 7 7 8 8 7 8 9 9 9 9 9 7 7 7 7 7 7 8 8 8 8 7 7 7 7
1 2 3 3 3 3 4 4 4 6 4 4 5 4 3 4 3 2 0 3 3 2 4 3 3 2 2 1 4 5 3 2 2 3 3 3 3 3 5 0 2 4 2 3 2 3 3 3 3 3 4 4 4 4 5 6 6 7 7 7 7 6 6 7 7 8 8 9 8 9 8 7 7 7 10 8 6 7 6 7 7 6 6 6 6
4 4 5 6 5 5 5 3 3 3 3 3 2 2 4 4 2 3 3 4 3 4 5 4 1 3 5 6 6 3 5 4 5 6 6 4 2 4 3 2 1 5 3 3 2 3 3 3 3 3 4 4 4 5 5 6 6 6 6 6 6 6 6 7 7 7 8 8 8 8 9 7 7 6 8 9 6 7 7 7 7 7 6 6 6
3 3 3 3 4 4 3 3 3 2 2 2 2 2 1 2 2 1 1 0 2 2 3 2 5 2 2 3 1 2 2 4 3 6 4 4 6 2 3 4 3 1 3 3 3 2 3 3 2 3 3 3 4 5 6 6 6 6 6 6 6 6 8 9 6 6 7 8 8 9 9 7 6 6 7 8 8 7 7 7 7 6 6 6 6
2 2 2 3 2 2 3 3 2 2 3 3 2 3 3 3 4 4 3 1 1 3 4 6 4 1 2 4 4 3 3 2 2 3 3 2 4 3 2 1 1 2 1 3 3 2 3 3 2 2 2 3 4 6 6 6 6 6 6 5 7 12 11 11 7 7 10 8 8 8 8 6 7 6 6 7 8 7 7 7 7 6 6 6 6
2 4 3 2 2 2 2 2 3 3 4 4 3 4 3 4 5 5 4 3 3 3 4 3 2 1 3 6 1 3 3 4 3 1 1 1 2 3 3 2 1 1 2 3 2 2 1 3 2 3 2 3 5 7 7 6 5 5 5 5 9 10 12 13 11 12 9 7 8 7 7 6 7 6 5 7 7 8 8 8 8 6 6 6 7
4 5 5 5 5 6 5 5 5 5 4 5 4 4 4 4 4 3 3 4 3 2 1 3 4 4 3 2 4 2 2 1 0 1 2 3 3 2 3 3 3 2 2 0 2 4 2 1 2 2 2 4 6 8 7 6 5 4 4 7 9 11 11 11 9 12 14 10 7 7 5 7 6 7 6 7 7 7 9 9 8 7 7 7 7
Wind_Direction
170 174 172 180 173 170 182 184 200 201 215 213 218 232 238 239 247 245 239 239 250 250 250 250 261 272 281 284 292 294 293 291 287 281 265 267 271 274 279 277 281 285 280 292 296 296 305 313 314 317 319 322 328 328 327 329 329 322 323 320 307 303 301 295 288 290 285 268 270 268 264 259 262 240 237 235 238 235 221 216 221 218 214 218 223
168 171 174 170 183 180 193 193 199 204 213 210 216 223 233 243 234 237 234 226 219 238 245 260 259 262 276 285 287 290 285 288 291 287 279 274 280 274 274 281 284 285 295 303 311 309 318 318 318 317 327 333 330 328 330 329 328 324 322 320 310 310 312 307 294 286 288 293 278 267 262 243 254 244 254 246 231 228 225 218 216 212 211 212 217
167 164 172 171 175 181 196 201 205 210 215 218 230 229 232 229 224 229 234 243 230 229 243 244 240 249 257 265 275 281 286 285 289 297 294 288 281 286 283 284 285 288 294 307 311 319 315 324 320 325 332 330 329 324 325 325 328 325 322 319 315 314 313 312 307 296 292 291 287 279 263 250 239 245 239 244 246 230 226 221 223 219 217 209 216
167 168 169 174 175 180 189 210 216 216 216 216 229 242 261 281 264 241 213 232 238 232 244 246 239 236 243 253 258 270 286 288 291 307 306 301 297 285 281 279 285 288 292 306 310 307 311 314 316 322 330 329 320 316 320 318 323 322 315 315 315 315 314 314 309 303 298 292 288 280 272 263 251 244 241 243 244 237 223 225 219 222 218 215 214
163 168 175 178 180 180 192 203 213 220 240 245 245 243 246 262 9 335 288 281 282 257 236 237 248 234 233 241 245 254 272 326 337 310 307 302 289 285 288 289 281 283 286 292 293 289 303 301 301 326 340 317 313 316 311 314 319 313 306 309 305 308 308 306 306 300 294 291 290 279 271 262 256 248 237 243 245 246 235 230 224 220 219 215 217
157 164 173 178 175 182 194 206 213 216 218 225 241 269 311 324 278 265 281 306 306 316 311 302 289 275 261 250 256 255 257 142 242 268 290 294 298 298 295 288 284 287 295 300 291 290 285 277 293 325 310 306 305 307 311 312 311 306 303 298 301 303 304 305 302 300 297 292 289 288 275 263 254 244 234 233 242 246 245 234 226 222 215 217 223
164 160 173 176 175 182 189 197 210 224 216 218 237 242 246 262 285 337 330 315 323 318 303 282 284 303 297 294 290 303 265 195 224 262 268 276 294 307 309 308 316 306 301 293 292 289 283 286 277 268 276 281 294 300 311 308 304 306 301 298 299 302 304 305 305 302 297 296 291 280 281 265 253 260 245 235 242 242 243 244 249 228 220 218 224
166 162 161 168 162 173 190 192 197 205 223 242 230 238 262 282 302 313 326 304 287 286 289 298 310 313 315 308 307 288 269 197 201 219 255 311 307 295 288 277 269 272 283 287 283 280 282 278 267 253 246 250 255 268 275 286 290 298 293 294 299 302 304 306 307 301 299 297 291 293 288 279 252 242 248 240 245 238 221 210 231 234 224 217 221
137 150 161 167 159 171 180 195 191 193 204 203 212 227 235 239 246 248 255 277 272 274 284 295 298 290 281 277 275 281 279 347 281 226 211 232 236 254 259 265 276 284 284 286 283 276 269 265 266 250 245 250 252 251 254 254 270 280 287 290 298 300 302 305 304 300 298 295 295 294 286 279 267 256 250 239 232 236 217 202 225 232 228 222 225
156 175 171 171 167 177 188 194 193 196 202 207 214 219 223 218 235 238 242 257 271 261 268 280 284 275 277 288 289 310 72 223 249 243 247 237 247 262 264 272 278 280 280 280 281 278 275 276 282 279 261 258 263 263 256 259 259 254 273 282 291 296 300 302 302 301 297 295 298 298 295 287 279 263 255 248 242 238 229 217 225 227 223 233 237
175 169 175 171 173 181 187 193 197 200 205 216 215 222 223 229 233 232 231 240 258 270 258 259 273 293 291 284 278 23 154 213 242 261 264 261 253 250 256 267 273 275 281 286 287 290 285 278 273 274 271 263 266 255 244 249 263 270 269 266 267 275 295 294 290 293 296 292 292 290 286 286 284 277 265 256 242 233 233 224 224 221 216 220 232
168 175 178 173 175 186 189 193 196 201 207 211 215 214 225 231 234 235 233 237 241 247 258 256 261 263 267 267 274 151 183 233 235 245 250 249 241 247 256 263 270 274 278 283 283 291 290 288 289 287 274 265 271 282 277 265 265 271 273 275 277 274 263 263 278 286 286 290 289 285 284 280 280 279 275 264 251 240 230 230 227 219 219 221 227
168 175 184 179 184 189 191 197 197 203 204 209 208 218 224 230 238 240 242 240 239 246 255 256 258 266 267 279 266 244 212 207 224 238 244 248 252 250 258 262 266 272 276 281 289 289 299 298 294 283 278 284 279 274 276 284 280 280 283 283 279 275 276 268 254 253 272 275 281 279 274 273 273 269 266 270 263 250 232 227 222 222 223 227 236
170 181 182 186 186 191 197 198 203 202 205 203 208 219 224 235 244 252 254 249 241 237 243 260 264 258 249 206 238 234 241 215 213 229 242 248 251 248 254 262 268 277 285 293 289 292 289 301 301 302 310 323 301 297 294 294 301 306 304 294 283 282 277 271 269 265 264 273 274 275 274 269 268 271 267 265 264 256 243 230 214 219 219 220 230
173 182 186 188 191 194 196 200 201 202 200 204 210 218 229 230 236 238 246 246 245 234 234 253 270 269 239 229 229 236 242 198 199 217 230 242 257 258 259 261 266 274 286 294 292 293 305 294 296 297 301 295 290 283 289 294 302 305 304 298 296 300 297 300 307 314 305 297 292 286 281 273 266 264 262 257 254 256 250 244 230 220 224 238 247
180 182 190 191 196 196 196 197 197 196 197 202 210 223 225 228 228 230 234 243 247 257 249 244 254 259 252 249 255 249 265 181 199 211 213 238 246 239 240 245 249 255 274 283 278 279 278 271 280 282 281 282 275 278 270 310 302 307 305 299 300 303 303 299 291 293 298 299 291 284 280 275 270 268 265 265 268 258 245 246 242 200 173 225 233
186 190 194 195 197 195 195 196 195 195 197 202 215 223 229 229 228 216 238 240 245 244 242 242 239 247 253 248 237 242 262 218 197 157 143 171 215 248 239 241 242 245 258 266 270 264 262 248 243 252 260 268 272 272 309 358 304 305 303 298 303 305 306 306 302 301 295 290 282 273 265 262 259 256 253 249 248 256 272 241 230 205 202 208 223
195 195 199 199 193 191 190 196 194 195 196 209 217 229 232 243 241 216 230 239 243 243 244 247 245 244 252 255 257 260 256 203 154 168 166 141 241 264 260 254 250 262 268 265 261 253 256 255 248 246 253 263 282 338 347 335 300 298 300 303 304 305 308 311 313 308 299 287 281 276 269 261 255 247 242 238 235 238 234 242 218 189 212 208 216
197 199 197 193 193 188 191 189 198 195 201 205 213 221 224 228 235 215 227 241 249 255 253 262 264 253 256 264 253 225 256 228 167 171 121 135 205 268 267 267 267 260 263 270 264 256 266 262 253 251 259 293 339 331 320 314 292 289 300 299 298 302 308 317 313 308 308 312 312 313 307 290 263 235 232 227 225 226 225 233 227 194 205 211 218
192 191 189 188 189 195 191 192 190 200 205 208 201 218 238 238 249 261 264 253 249 248 247 254 257 249 250 252 259 241 259 270 106 106 91 103 164 258 263 272 281 283 284 279 278 272 266 276 274 112 159 126 323 308 303 309 294 294 292 294 306 310 315 312 306 305 310 320 320 319 314 309 279 212 210 216 216 216 216 221 225 203 200 215 212
184 182 183 185 191 196 194 193 196 195 204 206 208 226 229 254 253 259 277 283 285 275 262 259 267 276 277 282 275 297 328 329 74 83 68 94 232 236 317 301 293 295 295 287 286 292 293 298 313 166 142 330 322 323 317 315 301 285 281 303 304 298 310 310 313 316 319 323 328 325 319 318 313 243 200 201 199 197 203 213 221 211 202 203 208
175 173 183 187 195 200 196 200 196 193 184 157 204 220 227 249 227 226 219 243 252 260 271 295 325 334 341 334 11 16 14 341 337 24 98 255 206 246 285 299 313 311 297 290 289 286 293 305 305 255 302 330 330 324 316 309 311 305 301 306 306 318 326 317 318 321 321 326 330 330 327 333 346 339 247 200 196 194 198 208 217 218 210 210 206
160 178 181 189 205 209 207 195 166 143 145 173 195 151 348 320 335 316 339 308 285 316 16 10 317 295 306 8 12 334 288 265 307 313 12 91 222 227 252 271 307 284 283 288 294 298 297 297 294 331 331 322 317 312 305 306 302 312 322 321 321 327 334 329 326 326 327 331 335 334 336 345 349 344 341 316 204 194 196 201 210 214 215 211 210
153 184 192 196 202 212 204 146 109 145 126 94 84 73 319 5 356 344 12 331 345 354 231 258 254 260 316 348 272 270 268 286 292 286 293 322 294 262 269 273 278 272 285 282 282 285 283 286 316 315 309 307 304 299 300 306 313 324 329 332 336 345 346 334 333 330 331 335 338 338 341 343 346 352 345 336 317 239 206 202 205 207 210 214 210
49 333 248 212 230 320 26 29 2 317 72 346 124 48 257 236 290 296 327 271 250 255 256 231 233 202 143 78 278 268 284 301 312 273 261 318 322 337 342 326 304 267 252 261 258 263 302 313 304 300 298 298 294 294 292 320 10 351 344 346 354 0 350 338 336 328 338 340 338 335 342 347 342 339 344 350 347 349 347 252 211 209 211 209 214
159 274 306 338 48 82 160 167 146 45 265 161 127 245 245 263 333 338 332 279 248 217 235 256 251 259 175 179 243 255 276 288 332 322 356 6 355 351 331 310 297 295 283 263 274 288 288 287 287 286 291 293 299 343 8 31 11 350 353 359 6 358 354 346 335 335 340 338 337 340 342 344 347 339 351 11 21 6 340 302 268 220 210 203 199
201 201 188 117 117 134 102 56 226 208 178 193 217 206 178 167 118 280 251 244 225 231 230 241 162 206 262 50 206 213 214 40 16 11 5 352 351 345 332 324 336 349 339 352 350 321 310 306 296 297 286 301 318 245 213 65 13 356 5 6 1 359 350 344 330 342 340 336 337 336 336 344 343 356 10 12 18 14 3 326 257 257 250 216 190
234 235 237 215 200 195 190 205 202 199 217 203 344 352 148 148 180 239 271 314 311 309 318 334 331 310 65 170 118 19 36 54 41 4 348 346 340 339 328 326 338 342 332 337 327 312 306 296 296 294 343 48 24 15 28 54 15 359 4 7 3 355 352 351 355 354 342 333 332 332 337 343 359 359 1 12 19 18 11 8 333 250 209 45 3
216 245 237 235 250 180 145 88 215 243 10 78 71 50 4 354 70 88 40 12 17 12 350 3 19 357 352 51 41 106 101 75 16 305 306 310 297 310 317 320 326 320 310 324 313 295 297 308 317 4 18 17 10 9 355 358 3 2 1 9 9 2 2 2 353 343 338 342 342 342 342 345 352 359 2 10 17 14 10 12 22 14 351 172 210
212 229 235 236 240 80 51 261 29 4 336 101 113 90 58 53 38 67 84 46 50 53 57 68 21 349 58 60 29 52 46 33 314 313 315 304 297 257 262 273 279 281 290 301 279 280 286 319 26 22 4 18 10 10 355 360 358 356 360 2 7 9 1 358 352 340 341 344 342 347 348 346 350 359 10 13 9 13 11 18 22 27 36 35 36
222 255 254 312 79 134 150 162 204 156 248 329 95 140 127 56 53 57 73 69 61 65 79 75 56 45 42 105 93 91 105 81 5 331 320 318 304 291 281 280 285 288 289 305 262 264 11 25 21 18 2 11 19 6 2 360 357 356 355 354 2 9 3 358 350 340 344 345 348 351 350 350 350 357 4 10 12 9 14 15 19 29 32 30 33
222 252 259 226 116 115 161 166 195 200 193 207 215 160 147 117 79 49 53 60 60 62 59 60 68 70 62 59 61 69 48 15 338 327 323 319 303 287 282 289 294 298 304 287 263 36 28 35 32 17 10 8 11 8 5 6 358 359 354 353 357 7 3 2 345 336 342 351 352 352 354 352 352 354 4 7 6 13 12 16 19 22 21 24 30
279 284 285 239 140 231 250 232 261 318 360 42 10 67 150 168 144 136 65 53 79 80 67 49 52 71 80 84 94 114 147 299 320 324 334 327 311 292 286 286 278 296 318 20 27 36 24 31 31 19 13 11 5 6 7 6 0 357 2 355 351 359 353 348 335 348 351 352 350 356 355 358 355 353 359 6 8 13 12 17 16 18 17 19 17
264 293 314 22 357 316 260 207 239 277 63 44 38 57 150 192 188 154 156 149 121 91 84 61 49 57 49 54 123 145 331 337 332 337 351 357 348 327 279 252 268 284 38 40 37 40 31 31 28 20 16 13 10 3 9 4 357 360 353 357 356 354 346 348 354 352 354 358 357 352 356 1 1 359 358 1 8 8 11 12 15 19 17 20 20
236 214 146 194 278 282 279 13 74 86 120 208 111 102 124 143 157 169 181 166 158 144 150 153 215 258 268 252 255 253 319 319 330 336 5 8 360 344 19 156 64 41 44 39 50 45 43 37 30 22 22 18 12 10 7 3 358 357 355 353 351 351 352 357 359 351 351 358 359 359 353 355 1 3 1 3 7 8 8 11 12 11 13 17 20
238 9 90 122 107 46 35 59 43 48 42 74 335 187 239 218 129 103 199 160 145 141 157 153 159 195 239 278 245 207 239 277 302 322 356 24 7 13 23 40 56 46 50 44 50 49 46 42 34 31 21 23 15 11 4 2 358 351 353 352 348 349 351 358 355 353 350 356 358 354 356 1 2 360 0 6 9 6 7 9 9 8 8 10 14
115 130 108 106 129 87 85 89 83 95 94 70 38 293 68 30 75 105 97 101 138 143 141 140 145 141 202 233 250 258 244 280 290 311 325 1 35 30 40 40 51 58 55 54 50 51 45 42 32 23 17 13 18 11 6 359 348 352 351 354 345 349 354 355 0 351 351 355 358 357 2 0 358 2 0 3 2 7 6 6 6 9 9 8 4
76 64 90 89 139 106 78 99 133 162 143 89 101 153 139 115 108 97 99 95 101 126 121 79 64 63 35 355 325 338 344 231 300 314 281 328 42 49 53 53 48 49 47 45 47 49 50 37 37 25 12 6 8 13 1 357 354 353 347 344 351 351 343 352 3 358 356 357 359 356 356 0 359 358 360 10 5 6 5 4 5 7 7 11 9
110 100 89 15 92 113 175 211 176 196 154 159 143 167 176 156 127 98 103 107 97 81 84 79 71 51 18 345 348 338 331 62 78 45 32 54 57 49 52 55 57 56 49 39 37 38 40 34 29 40 24 12 10 6 6 3 357 359 350 351 352 351 355 3 360 1 360 0 358 356 353 355 0 359 360 2 9 9 6 3 6 8 4 7 5
143 150 103 316 229 183 195 176 184 187 136 159 157 152 175 170 135 163 148 136 147 132 124 121 86 54 17 3 358 341 356 54 50 48 32 57 61 57 48 57 60 56 48 39 37 38 32 32 22 29 27 12 11 6 14 5 2 4 356 3 360 354 355 359 360 359 360 356 357 355 353 352 1 0 356 3 6 8 7 8 4 4 359 0 2
160 114 121 100 25 114 137 136 127 110 135 122 134 174 104 108 112 157 180 161 168 163 138 89 79 69 34 345 330 345 328 35 24 59 63 61 60 65 66 55 49 52 46 35 23 37 47 34 32 30 29 22 12 5 5 12 11 9 4 3 6 0 354 357 355 357 355 354 354 354 354 353 1 1 357 352 358 7 15 11 9 2 0 1 11
143 134 158 148 184 210 135 137 128 132 140 151 148 122 124 137 155 192 205 237 218 138 121 116 120 118 111 26 326 328 334 40 16 36 41 68 81 82 89 86 66 38 31 25 7 10 20 42 34 34 38 29 20 5 8 23 16 13 9 3 8 5 359 355 356 352 352 351 347 349 354 355 360 4 354 344 354 360 15 15 13 6 8 5 11
151 159 152 147 174 171 142 142 150 155 175 183 145 148 174 229 205 221 229 248 182 158 134 126 124 115 114 126 277 312 295 32 340 18 80 131 152 131 123 108 128 130 96 77 58 6 339 10 39 40 32 35 27 18 24 24 22 19 14 7 9 7 4 357 353 350 347 348 342 343 353 347 4 7 356 351 358 354 13 11 14 11 10 9 6
159 151 144 175 148 137 149 165 165 176 180 151 145 176 200 202 229 255 246 251 235 143 135 138 134 140 141 154 195 238 337 39 344 342 301 211 193 187 182 198 155 148 147 106 67 27 354 24 44 46 47 40 28 49 39 36 32 28 23 14 6 7 5 358 349 342 344 344 341 336 348 351 4 9 359 353 2 358 6 6 8 13 13 12 6
159 144 166 170 155 165 154 163 140 168 149 154 190 203 189 217 241 218 204 275 298 275 162 125 144 146 122 102 300 355 72 98 257 257 279 304 318 290 272 197 154 170 162 142 126 64 26 39 46 44 42 52 32 40 54 47 44 42 37 22 12 7 0 349 339 329 337 343 340 330 332 354 1 5 2 354 8 1 5 3 1 4 13 13 10
128 171 130 88 117 152 159 187 182 157 177 205 219 191 200 232 250 250 268 80 75 103 147 164 172 121 87 272 222 213 195 177 181 204 227 241 259 261 254 190 172 169 70 72 82 82 52 35 50 48 41 56 50 37 52 54 52 49 44 36 20 9 354 337 326 333 344 343 335 321 322 350 357 2 3 356 0 4 359 358 355 0 13 7 10
164 158 154 165 182 184 202 167 199 194 208 224 242 209 222 227 188 97 72 57 32 15 311 237 117 118 167 203 224 234 174 204 194 182 211 222 243 233 265 226 115 79 97 81 39 65 76 65 53 77 56 32 68 63 53 58 51 45 43 35 21 4 357 340 327 341 344 334 324 321 325 342 355 360 4 354 357 4 357 359 351 351 7 10 3
208 212 214 194 178 191 173 159 175 145 243 250 233 247 275 329 342 44 300 315 358 357 348 303 202 203 257 256 242 291 295 256 239 161 173 172 191 154 63 17 358 315 108 109 91 64 60 54 53 57 80 67 64 72 67 61 58 47 39 25 19 1 347 342 329 344 343 327 319 326 313 335 354 4 11 355 351 360 356 356 346 345 8 10 6
213 254 241 221 230 221 210 218 202 228 259 255 254 263 254 280 293 288 274 266 147 222 224 282 12 91 255 272 232 182 200 253 247 222 200 109 90 127 126 107 26 344 76 99 118 121 118 103 76 61 55 77 90 84 75 64 58 51 35 23 358 352 348 348 343 348 332 329 328 322 313 342 355 358 15 5 350 351 351 351 345 350 8 7 8
218 230 225 220 257 260 253 228 231 239 235 245 238 224 223 235 245 247 255 241 219 250 275 263 272 293 194 243 103 229 207 197 231 250 169 129 120 122 143 148 221 225 113 116 93 80 91 119 117 90 86 73 91 91 81 69 60 51 34 7 352 353 357 351 347 351 347 336 321 308 307 356 355 358 13 10 353 351 352 353 348 353 6 4 7
219 201 200 203 209 212 207 205 216 226 233 239 239 239 232 227 223 224 228 243 256 249 258 266 254 241 239 207 217 219 219 241 153 197 140 157 148 148 145 179 171 181 117 186 166 141 127 52 77 106 108 106 93 95 84 75 75 75 43 12 1 356 0 1 352 339 337 334 318 302 345 358 3 4 10 9 357 357 359 356 349 358 5 0 2